Vancouver, WA

7:37 AM PDT on April 23, 2017 (GMT -0700)
Pearson

Weather History for KVUO - March, 2014

Change the Weather History Date:

Monday, March 3, 2014

  Actual Average Record
Temperature  
Mean Temperature 51 °F 46 °F  
Max Temperature 61 °F 55 °F 70 °F (1928)
Min Temperature 40 °F 37 °F 19 °F (1989)
Degree Days  
Heating Degree Days 14    
Month to date heating degree days 62  
Since 1 July heating degree days 3525  
Cooling Degree Days 0    
Month to date cooling degree days 0  
Year to date cooling degree days 0  
Moisture  
Dew Point 44 °F    
Average Humidity 76    
Maximum Humidity 100    
Minimum Humidity 51    
Precipitation  
Precipitation 0.24 in 0.12 in 0.87 in (1904)
Month to date precipitation 0.71 0.35  
Year to date precipitation 7.60 9.88  
Sea Level Pressure  
Sea Level Pressure 29.82 in    
Wind  
Wind Speed 7 mph (SSE)    
Max Wind Speed 16 mph    
Max Gust Speed 24 mph    
Visibility 9 miles    
Events Rain    
T = Trace of Precipitation, MM = Missing Value Source: NWS Daily Summary

Daily Weather History Graph

Daily Weather History Graph

Search for Another Location

Airport or City:

Trip Planner

Search our weather history database for the weather conditions in past years. The results will help you decide how hot, cold, wet, or windy it might be!

Date:

Astronomy

Mar. 03, 2014 Rise Set
Actual Time 6:45 AM PST 6:00 PM PST
Civil Twilight 6:15 AM PST 6:30 PM PST
Nautical Twilight 5:41 AM PST 7:04 PM PST
Astronomical Twilight 5:06 AM PST 7:39 PM PST
Moon 7:47 AM PST (3/3) 9:20 PM PST (3/3)
Length of Visible Light 12h 14m
Length of Day
11h 15m
Waxing Crescent, 8% of the Moon is Illuminated
Mar 3
Waxing Crescent
Mar 8
First Quarter
Mar 16
Full
Mar 23
Last Quarter
Mar 30
New

Hourly Weather History & Observations

Time (PST) Temp. Windchill Dew Point Humidity Pressure Visibility Wind Dir Wind Speed Gust Speed Precip Events Conditions
12:53 AM 50.0 °F - 46.0 °F 86% 29.85 in 10.0 mi SE 3.5 mph - 0.02 in   Mostly Cloudy
1:53 AM 51.1 °F - 46.0 °F 83% 29.84 in 10.0 mi Variable 3.5 mph - 0.01 in Rain Light Rain
2:53 AM 50.0 °F - 46.0 °F 86% 29.83 in 10.0 mi ESE 5.8 mph - 0.03 in   Overcast
3:53 AM 48.0 °F - 45.0 °F 89% 29.81 in 10.0 mi ESE 4.6 mph - 0.02 in Rain Light Rain
4:53 AM 42.1 °F 36.6 °F 39.9 °F 92% 29.79 in 5.0 mi SE 9.2 mph - 0.04 in Rain Light Rain
5:33 AM 39.9 °F 33.4 °F 39.0 °F 97% 29.76 in 4.0 mi SE 10.4 mph - 0.03 in Rain Light Rain
5:53 AM 39.9 °F 33.4 °F 39.0 °F 97% 29.76 in 6.0 mi SE 10.4 mph - 0.04 in Rain Light Rain
6:19 AM 39.9 °F 32.5 °F 37.9 °F 93% 29.76 in 7.0 mi ESE 12.7 mph - 0.00 in Rain Light Rain
6:53 AM 39.9 °F 33.4 °F 37.9 °F 93% 29.75 in 7.0 mi SE 10.4 mph - 0.02 in Rain Light Rain
7:12 AM 41.0 °F 35.2 °F 39.0 °F 93% 29.75 in 2.5 mi SE 9.2 mph - 0.01 in Rain Light Rain
7:43 AM 43.0 °F 38.2 °F 41.0 °F 93% 29.75 in 5.0 mi ESE 8.1 mph - 0.03 in Rain Light Rain
7:53 AM 44.1 °F 39.5 °F 42.1 °F 93% 29.75 in 5.0 mi East 8.1 mph - 0.04 in Rain Light Rain
8:33 AM 45.0 °F 41.2 °F 43.0 °F 93% 29.76 in 5.0 mi ESE 6.9 mph - 0.04 in Rain Light Rain
8:53 AM 48.0 °F - 45.0 °F 89% 29.76 in 10.0 mi SE 9.2 mph - 0.04 in   Overcast
9:53 AM 53.1 °F - 48.9 °F 86% 29.77 in 10.0 mi SSW 10.4 mph - N/A   Overcast
10:10 AM 51.1 °F - 46.9 °F 86% 29.77 in 10.0 mi Variable 3.5 mph - N/A   Overcast
10:53 AM 54.0 °F - 50.0 °F 86% 29.78 in 10.0 mi ESE 8.1 mph - N/A   Overcast
11:06 AM 53.1 °F - 48.9 °F 86% 29.78 in 10.0 mi ESE 8.1 mph - N/A   Overcast
11:26 AM 55.9 °F - 50.0 °F 80% 29.78 in 10.0 mi South 9.2 mph - N/A   Overcast
11:53 AM 57.0 °F - 48.9 °F 74% 29.78 in 10.0 mi SSW 9.2 mph 18.4 mph N/A   Mostly Cloudy
12:53 PM 60.1 °F - 48.9 °F 67% 29.79 in 10.0 mi SW 12.7 mph 18.4 mph N/A   Mostly Cloudy
1:53 PM 60.1 °F - 46.9 °F 62% 29.79 in 10.0 mi SW 9.2 mph - N/A   Partly Cloudy
2:53 PM 61.0 °F - 45.0 °F 56% 29.81 in 10.0 mi West 8.1 mph 17.3 mph N/A   Partly Cloudy
3:53 PM 60.1 °F - 43.0 °F 53% 29.83 in 10.0 mi West 11.5 mph - N/A   Overcast
4:53 PM 59.0 °F - 44.1 °F 58% 29.86 in 10.0 mi West 6.9 mph - N/A   Overcast
5:53 PM 54.0 °F - 42.1 °F 64% 29.89 in 10.0 mi WNW 6.9 mph - N/A   Scattered Clouds
6:53 PM 53.1 °F - 42.1 °F 66% 29.92 in 10.0 mi WSW 4.6 mph - N/A   Scattered Clouds
7:53 PM 52.0 °F - 42.1 °F 69% 29.93 in 10.0 mi Calm Calm - N/A   Mostly Cloudy
8:53 PM 52.0 °F - 43.0 °F 71% 29.95 in 10.0 mi SW 6.9 mph - N/A   Clear
9:53 PM 48.9 °F - 42.1 °F 77% 29.97 in 10.0 mi Calm Calm - N/A   Clear
10:53 PM 45.0 °F - 39.9 °F 82% 29.97 in 10.0 mi Calm Calm - N/A   Clear
11:53 PM 45.0 °F - 41.0 °F 86% 29.98 in 10.0 mi Calm Calm - N/A   Partly Cloudy